FENGYUN 1C DEB *, 47101

Orbit data source: Space-Track

FENGYUN 1C DEB *, 47101 is space debris in SSO originally from a launch on Mon, 10 May 1999 UTC launched from the Taiyaun Space Center, China (TSC). Fengyun 1C debris stems from the Chinese weather satellite Fengyun-1C, which was intentionally destroyed by a Chinese anti-satellite missile in 2007. This event dramatically increased the amount of space debris, with thousands of trackable fragments posing hazards to satellites and human spaceflight. The Fengyun 1C debris cloud has become a focal point in discussions about space sustainability and the need for international regulations to prevent the creation of new debris.

Loading next visibility...
Identifier
47101, 1999-025FBZ
Orbit
SSO
Country
Flag of CNCN / PRC
Related business
Manufacturer
Unknown
Mission
Spacecraft
Bus & Motor
Unknown
Mass
Unknown
Launch date (UTC)
1999-05-10 (27 years ago)
Launch vehicle
Unknown
Launch site
Taiyaun Space Center, China (TSC)
Object type
Payload
Rocket body
Debris
Shape & HBR
Unknown shape, 0.1 m
Radar Cross Section
Small (<0.1 m²)

Expand to show TLE details & history
Last TLE update: 2 days ago

TLE from 2 days ago
0 FENGYUN 1C DEB *
1 47101U 99025FBZ 26102.42541928  .00004208  00000-0  18528-2 0  9994
2 47101  98.8081 167.5909 0107800  76.3969 284.9186 14.20879937363732
Epoch: 2026-04-12T10:12Z
TLE epoch observation values (Epoch: 2026-04-12T10:12:36.225Z)
Latitude
-0.00013°
Longitude
173.80943°
Altitude
806.089 km
Speed
7.46 km/s
True Right ascension
11h 10m 21s
True Declination
0° 00' 00"
Sunlit
Object was in full shadow at epoch
Visualization orbit readout
Latitude
Unknown
Longitude
Unknown
Altitude
Unknown
Speed
Unknown
Apparent Right ascension
Unknown
Apparent Declination
Unknown
Sunlit
N/A
Visualization observer readout
Local Sidereal Time
15:09:15
Azimuth
Unknown
Elevation
Unknown
Doppler factor
Unknown
Orbital elements
Apogee altitude
897.131 km
Perigee altitude
741.949 km
Semi-major axis
7,197.677 km
Eccentricity
0.01078
Inclination
98.8081°
RAAN
167.5909°
Arg. of periapsis
76.3969°
True anomaly
283.72087°
Mean anomaly
284.9186°
Eccentric anomaly
284.32014°
Mean motion
3.5543 °/min
Orbital period
101.29 mins
BSTAR
0.0018528
Loading maneuver chart data...
Computing Atmospheric mass density...
Loading historical data...
Loading historical data...
Loading historical data...
Loading historical data...
Loading historical data...
Loading historical data...
Loading historical data...

Documentation

Showing up to 5 results
|